Location: Powder Track
(41.8531°N, 72.3584°W)
Time: 17:58:36
(UTC+00:00)

Vanguard 1 Rocket - Pass Details

Date: 08 August 2021
Orbit: 650 x 4226 km, 34.3° (Epoch: 20 September)

Event Time Altitude Azimuth Distance (km) Brightness Sun altitude
Rises 10:02:40 0° 201° (SSW) 8,037 11.8 1.2°
Reaches altitude 10° 10:09:16 10° 191° (S) 7,275 11.7 2.4°
Maximum altitude 10:29:28 30° 140° (SE) 5,665 11.8 6.0°
Drops below altitude 10° 10:46:24 10° 89° (E) 6,226 13.8 9.0°
Sets 10:51:16 0° 80° (E) 6,794 14.2 9.9°
